TimeEDT,TemperatureF,Dew PointF,Humidity,Sea Level PressureIn,VisibilityMPH,Wind Direction,Wind SpeedMPH,Gust SpeedMPH,PrecipitationIn,Events,Conditions,WindDirDegrees,DateUTC
12:54 AM,63.0,59.0,87,29.99,8.0,SSW,4.6,-,N/A,,Clear,200,2012-10-06 04:54:00
1:54 AM,64.9,60.1,84,29.98,10.0,SSW,5.8,-,N/A,,Clear,210,2012-10-06 05:54:00
2:54 AM,64.0,59.0,84,29.95,8.0,South,4.6,-,N/A,,Clear,190,2012-10-06 06:54:00
3:54 AM,64.0,60.1,87,29.95,7.0,SSW,5.8,-,N/A,,Clear,200,2012-10-06 07:54:00
4:54 AM,63.0,59.0,87,29.94,5.0,SSW,4.6,-,N/A,,Clear,200,2012-10-06 08:54:00
5:54 AM,63.0,59.0,87,29.93,6.0,SSW,5.8,-,0.01,,Clear,200,2012-10-06 09:54:00
6:54 AM,63.0,60.1,90,29.93,5.0,SSW,5.8,-,N/A,,Clear,200,2012-10-06 10:54:00
7:54 AM,64.9,62.1,90,29.93,4.0,SSW,5.8,-,N/A,,Clear,200,2012-10-06 11:54:00
8:54 AM,70.0,64.9,84,29.92,9.0,SSW,8.1,-,N/A,,Clear,200,2012-10-06 12:54:00
9:54 AM,75.0,64.0,69,29.91,10.0,South,10.4,-,N/A,,Clear,190,2012-10-06 13:54:00
10:54 AM,79.0,62.1,56,29.89,10.0,SW,11.5,-,N/A,,Clear,220,2012-10-06 14:54:00
11:54 AM,81.0,62.1,52,29.88,10.0,WSW,12.7,19.6,N/A,,Clear,240,2012-10-06 15:54:00
12:54 PM,81.0,61.0,50,29.86,10.0,WSW,16.1,24.2,N/A,,Clear,240,2012-10-06 16:54:00
2:54 PM,82.0,61.0,49,29.84,10.0,WSW,16.1,23.0,N/A,,Partly Cloudy,240,2012-10-06 18:54:00
3:54 PM,80.1,61.0,52,29.84,10.0,WSW,11.5,-,N/A,,Mostly Cloudy,250,2012-10-06 19:54:00
4:54 PM,78.1,63.0,60,29.85,10.0,SW,5.8,-,N/A,,Overcast,220,2012-10-06 20:54:00
5:06 PM,69.8,62.6,78,29.86,2.5,NNW,17.3,33.4,0.03,Rain,Heavy Rain,330,2012-10-06 21:06:00
5:14 PM,69.8,62.6,78,29.87,8.0,NNW,13.8,24.2,0.03,Rain,Light Rain,340,2012-10-06 21:14:00
5:54 PM,70.0,60.1,71,29.90,10.0,NNW,11.5,-,0.03,,Partly Cloudy,330,2012-10-06 21:54:00
7:54 PM,66.9,51.1,57,29.95,10.0,NW,6.9,16.1,N/A,,Mostly Cloudy,320,2012-10-06 23:54:00
8:54 PM,66.0,50.0,56,29.97,10.0,NW,8.1,-,N/A,,Mostly Cloudy,320,2012-10-07 00:54:00
9:54 PM,64.0,50.0,60,30.01,10.0,NNW,8.1,-,N/A,,Mostly Cloudy,330,2012-10-07 01:54:00
10:54 PM,63.0,46.9,56,30.03,10.0,NNW,11.5,-,N/A,,Overcast,330,2012-10-07 02:54:00
11:54 PM,61.0,46.0,58,30.03,10.0,NNW,8.1,-,N/A,,Mostly Cloudy,340,2012-10-07 03:54:00